Zurück zum Katalog

STARLINK-35840

AktivKommunikationVLEO
NORAD 66834·PAYLOAD·🇺🇸 United States

Gestartet Dec 2, 2025 von Vandenberg Space Force Base

Loading…

Nächste Überflüge (nächste 24 Stunden)

TLE

AktuellSource: CelesTrak SupGP

Epoche: Sep 14, 2026, 21:38 UTC

1 66834C 25280P   26257.90187500  .00005366  00000+0  44962-3 0  2570
2 66834  70.0014 217.1960 0003655 260.3705  66.6007 14.98329249    16

Verfolge STARLINK-35840 in Echtzeit mit AllMySat

Download on the App Store